SVW123 LSZH-LSZR

Flight info

Callsign SVW123
Flight time 0h 11m
Altitude 11000
Route ZUE
Aircraft A319/M-SDE3FGHIRWY/LB1

Departure

Time 2026-05-05 22:46
Airport Zürich Airport (LSZH)

Arrival

Time 2026-05-05 22:57
Airport Sankt Gallen Altenrhein Airport (LSZR)
Time Latitude Longitude Altitude Speed Heading
2026-05-05 22:35 47.44636 8.56456 1397 ft 0 kts 335°
2026-05-05 22:41 47.44615 8.56472 1408 ft 4 kts 323°
2026-05-05 22:41 47.44596 8.56499 1405 ft 4 kts 303°
2026-05-05 22:41 47.44585 8.56534 1404 ft 4 kts 272°
2026-05-05 22:41 47.44587 8.56558 1405 ft 0 kts 245°
2026-05-05 22:43 47.44585 8.56553 1404 ft 2 kts 245°
2026-05-05 22:43 47.44568 8.56498 1403 ft 9 kts 245°
2026-05-05 22:43 47.44538 8.56403 1399 ft 11 kts 245°
2026-05-05 22:43 47.44502 8.56290 1403 ft 10 kts 245°
2026-05-05 22:44 47.44493 8.56216 1404 ft 5 kts 241°
2026-05-05 22:44 47.44470 8.56156 1403 ft 8 kts 241°
2026-05-05 22:44 47.44454 8.56058 1397 ft 11 kts 275°
2026-05-05 22:44 47.44514 8.55977 1399 ft 13 kts 336°
2026-05-05 22:45 47.44604 8.55916 1402 ft 14 kts 335°
2026-05-05 22:45 47.44615 8.55808 1402 ft 13 kts 246°
2026-05-05 22:45 47.44587 8.55667 1399 ft 16 kts 285°
2026-05-05 22:45 47.44623 8.55622 1399 ft 0 kts 335°
2026-05-05 22:46 47.44679 8.55585 1399 ft 40 kts 335°
2026-05-05 22:46 47.45263 8.55183 1407 ft 139 kts 335°
2026-05-05 22:46 47.46251 8.54500 2043 ft 161 kts 334°
2026-05-05 22:47 47.47273 8.53786 3034 ft 168 kts 329°
2026-05-05 22:47 47.48404 8.52968 3739 ft 194 kts 328°
2026-05-05 22:47 47.49691 8.52038 4627 ft 215 kts 328°
2026-05-05 22:47 47.51064 8.51055 5795 ft 223 kts 327°
2026-05-05 22:48 47.52611 8.50250 6660 ft 258 kts 348°
2026-05-05 22:48 47.54492 8.50767 7401 ft 296 kts 25°
2026-05-05 22:48 47.56017 8.52880 8504 ft 309 kts 60°
2026-05-05 22:48 47.56803 8.55827 9804 ft 310 kts 79°
2026-05-05 22:49 47.57184 8.59114 10474 ft 333 kts 87°
2026-05-05 22:49 47.57401 8.62705 10761 ft 368 kts 89°
2026-05-05 22:49 47.57608 8.66560 10904 ft 388 kts 88°
2026-05-05 22:49 47.57883 8.70511 10686 ft 368 kts 87°
2026-05-05 22:50 47.57806 8.74164 10443 ft 345 kts 102°
2026-05-05 22:50 47.57428 8.77589 10201 ft 330 kts 103°
2026-05-05 22:50 47.57064 8.80870 9961 ft 317 kts 103°
2026-05-05 22:50 47.56831 8.82966 9826 ft 308 kts 103°
2026-05-05 22:51 47.56486 8.86041 9693 ft 298 kts 103°
2026-05-05 22:51 47.56144 8.89065 9563 ft 296 kts 103°
2026-05-05 22:51 47.55793 8.92154 9426 ft 295 kts 103°
2026-05-05 22:51 47.55454 8.95147 9292 ft 295 kts 103°
2026-05-05 22:52 47.55111 8.98163 9159 ft 294 kts 103°
2026-05-05 22:52 47.54778 9.01057 9028 ft 280 kts 103°
2026-05-05 22:52 47.54438 9.03944 8900 ft 290 kts 103°
2026-05-05 22:52 47.54083 9.06906 8762 ft 294 kts 103°
2026-05-05 22:53 47.53727 9.09887 8383 ft 293 kts 103°
2026-05-05 22:53 47.53374 9.12839 7972 ft 292 kts 103°
2026-05-05 22:53 47.53021 9.15799 7551 ft 291 kts 103°
2026-05-05 22:53 47.52670 9.18736 7135 ft 290 kts 103°
2026-05-05 22:54 47.52318 9.21675 6718 ft 290 kts 103°
2026-05-05 22:54 47.51967 9.24597 6308 ft 287 kts 102°
2026-05-05 22:54 47.51615 9.27501 5868 ft 286 kts 102°
2026-05-05 22:54 47.51266 9.30399 5453 ft 286 kts 102°
2026-05-05 22:55 47.50918 9.33293 5044 ft 286 kts 102°
2026-05-05 22:55 47.50578 9.36188 4903 ft 286 kts 101°
2026-05-05 22:55 47.50279 9.38989 4903 ft 257 kts 100°
2026-05-05 22:55 47.50026 9.41482 4323 ft 244 kts 100°
2026-05-05 22:56 47.49771 9.43973 3568 ft 240 kts 100°
2026-05-05 22:56 47.49519 9.46389 2847 ft 234 kts 100°
2026-05-05 22:56 47.49281 9.48650 2544 ft 211 kts 99°
2026-05-05 22:56 47.49071 9.50663 2327 ft 186 kts 99°
2026-05-05 22:57 47.48886 9.52419 1984 ft 161 kts 99°
2026-05-05 22:57 47.48726 9.53987 1570 ft 149 kts 98°
2026-05-05 22:57 47.48571 9.55454 1320 ft 126 kts 99°
2026-05-05 22:57 47.48478 9.56323 1313 ft 42 kts 99°
2026-05-05 22:58 47.48467 9.56433 1311 ft 4 kts 99°
2026-05-05 22:58 47.48458 9.56519 1310 ft 13 kts 99°
2026-05-05 22:58 47.48440 9.56683 1311 ft 19 kts 99°
2026-05-05 22:58 47.48420 9.56886 1312 ft 19 kts 98°
2026-05-05 22:59 47.48416 9.57007 1316 ft 10 kts 75°
2026-05-05 22:59 47.48411 9.57041 1317 ft 2 kts 181°
2026-05-05 22:59 47.48412 9.56956 1314 ft 19 kts 279°
2026-05-05 22:59 47.48447 9.56621 1311 ft 39 kts 279°
2026-05-05 23:00 47.48530 9.55827 1321 ft 38 kts 278°
2026-05-05 23:00 47.48570 9.55450 1319 ft 25 kts 278°
2026-05-05 23:00 47.48614 9.55329 1317 ft 13 kts
2026-05-05 23:01 47.48664 9.55263 1315 ft 7 kts 293°
2026-05-05 23:01 47.48708 9.55252 1315 ft 5 kts
2026-05-05 23:01 47.48715 9.55253 1314 ft 0 kts